Tracking 19792 objects as of 15-Jul-2019
HD Live streaming from Space Station
objects crossing your sky now

NOAA 16 DEB

Track NOAA 16 DEB now!
10-day predictions


NORAD ID: 41080
Int'l Code: 2000-055AP
Perigee: 851.6 km
Apogee: 856.5 km
Inclination: 98.8 °
Period: 101.9 minutes
Semi major axis: 7225 km
RCS: Unknown
Launch date: September 21, 2000
Source: United States (US)
Launch site: AIR FORCE WESTERN TEST RANGE (AFWTR)

Note: This is SATELLITE DEBRIS
aabbcc
Your satellite tracking list
Your tracking list is empty




NASA's NSSDC Master Catalog

Two Line Element Set (TLE):
1 41080U 00055AP  19196.16197354 -.00002613  00000-0 -13616-2 0  9998
2 41080  98.7941 268.8497 0003394 262.1569  97.9218 14.13661151186827
Source of the keplerian elements: AFSPC